Location: Amherst
(42.3800°N, 72.5240°W)
Time: 10:29:45
(UTC-04:00)

ISS - Pass Details

Date: 26 May 2021
Orbit: 417 x 422 km, 51.6° (Epoch: 14 June)

Event Time Altitude Azimuth Distance (km) Brightness Sun altitude
Rises 21:38:20 0° 306° (NW) 2,366 2.0 -12.8°
Reaches altitude 10° 21:40:43 10° 321° (NW) 1,502 0.5 -13.2°
Maximum altitude 21:43:30 24° 17° (NNE) 928 -1.7 -13.5°
Drops below altitude 10° 21:46:18 10° 73° (ENE) 1,501 -1.2 -13.9°
Enters shadow 21:46:34 - 76° (ENE) 1,590 -1.1 -13.9°
